Regional Weather Roundup
Issued by NWS Cleveland, OH

Home | Current Version | Previous Version | Text Only | Print | Product List | Glossary Off
Versions: 1 2 3 4 5 6 7 8 9 10 11 12 13 14 15 16 17 18 19 20 21 22 23 24 25 26 27 28 29 30 31 32 33 34 35 36 37 38 39 40 41 42 43 44 45 46 47 48 49 50

000
ASUS41 KCLE 031110
RWRCLE
NATIONAL WEATHER SERVICE CLEVELAND, OH
700 AM EDT THU SEP 03 2015

NOTE: "FAIR" INDICATES FEW OR NO CLOUDS BELOW 12,000 FEET WITH NO
SIGNIFICANT WEATHER AND/OR OBSTRUCTIONS TO VISIBILITY.

OHZ001>008-015>018-024>027-034-035-043-044-031200-
   NORTHWEST OHIO

CITY           SKY/WX    TMP DP  RH WIND       PRES   REMARKS
DEFIANCE       PTCLDY    70  66  87 S3        30.00R
FINDLAY        PTCLDY    69  65  86 SW3       30.00R
TOLEDO EXPRESS CLEAR     70  67  90 W5        29.99R
TOLEDO EXEC    CLEAR     70  65  84 SW3       29.99R
LIMA           FAIR      70  67  90 SW3       30.02R FOG
$$

OHZ009>014-019>023-028>033-038-089-031200-
   NORTHEAST OHIO

CITY           SKY/WX    TMP DP  RH WIND       PRES   REMARKS
CLE-HOPKINS    MOCLDY    70  66  87 SW6       30.00S
CLE-LAKEFRONT  CLOUDY    75  68  78 SW6       29.96S
CUY CO. ARPT   CLOUDY    72  70  94 W7        29.99
LORAIN-ELYRIA  MOCLDY    68  65  90 CALM      30.00R FOG
ASHTABULA      MOCLDY    69  68  96 SW3       29.99R FOG
AKRON-CANTON   PTCLDY    69  65  86 NW3       30.00S FOG
WOOSTER        PTCLDY    67  65  93 CALM      30.02R
MANSFIELD      MOCLDY    69  66  90 SW3       30.03R
YOUNGSTOWN     MOCLDY    68  67  96 CALM      30.00R FOG
$$

OHZ042-051>053-060>062-070>072-077>081-031200-
  SOUTHWEST OHIO

CITY           SKY/WX    TMP DP  RH WIND       PRES   REMARKS
CINC-COVINGTON PTCLDY    69  66  90 CALM      30.04R FOG
CINC-LUNKEN    PTCLDY    65  65 100 CALM      30.04R FOG
HAMILTON       PTCLDY    66  65  96 CALM      30.04R FOG
DAYTON         PTCLDY    66  66 100 W6        30.04R
WRIGHT-PAT AFB PTCLDY    66  66 100 S2        30.02S FOG
DAYTON GENERAL PTCLDY    68  65  90 CALM      30.03R
WILMINGTON     CLEAR     66  63  90 W5        30.03S
$$

OHZ036-037-039>041-045>050-054>059-063>069-073>076-082>088-031200-
  CENTRAL AND SOUTHEAST OHIO

CITY           SKY/WX    TMP DP  RH WIND       PRES   REMARKS
COLUMBUS       PTCLDY    69  67  93 CALM      30.00S
OSU AIRPORT    MOCLDY    66  65  96 W5        30.01S
BOLTON FIELD   PTCLDY    65  65 100 CALM      30.02R FOG
RICKENBACK AFB PTCLDY    66  66  98 CALM      30.01R FOG
NEWARK         PTCLDY    67  65  93 W5        30.01R FOG
MARION         MOCLDY    67  65  93 CALM      30.02R FOG
LANCASTER      PTCLDY    64  63  96 CALM      30.02R FOG
ZANESVILLE     CLOUDY    68  64  87 CALM      30.01R FOG
NEW PHILLY     FOG       66  66 100 SE3       30.01R VSB 3/4
$$



USA.gov is the U.S. government's official web portal to all federal, state and local government web resources and services.